Regional Weather Roundup
Issued by NWS

Home | Current Version | Previous Version | Graphics & Text | Print | Product List | Glossary On
Versions: 1 2 3 4 5 6 7 8 9 10 11 12 13 14 15 16 17 18 19 20 21 22 23 24 25 26 27 28 29 30 31 32 33 34 35 36 37 38 39 40 41 42 43 44 45 46 47 48 49 50
000
ASUS45 KBOU 231807
RWRCO

WEATHER ROUNDUP FOR COLORADO
NATIONAL WEATHER SERVICE DENVER/BOULDER CO
1200 PM MDT SAT JUL 23 2016

NOTE: "FAIR" INDICATES FEW OR NO CLOUDS BELOW 12000 FEET WITH NO
SIGNIFICANT WEATHER AND/OR OBSTRUCTIONS TO VISIBILITY.

COZ001>005-013-030-031-231900-
...NORTHWEST COLORADO...

CITY           SKY/WX    TMP DP  RH WIND       PRES   REMARKS
CRAIG          FAIR      84  42  22 MISG      30.23F
HAYDEN         FAIR      79  43  27 NE3       30.27S
MEEKER         FAIR      84  49  29 VRB3      30.24F
MOUNT WERNER   NOT AVBL
STEAMBOAT SPGS FAIR      78  43  28 CALM      30.29S
WALDEN         FAIR      77  36  22 SW15G21   30.37S
$$

COZ006>008-011-231900-
...WEST CENTRAL VALLEYS...

CITY           SKY/WX    TMP DP  RH WIND       PRES   REMARKS
GRAND JUNCTION FAIR      86  51  29 SE5       30.14F
MONTROSE       FAIR      85  50  29 NE6       30.23F
EAGLE          SUNNY     81  45  28 CALM      30.29F
RIFLE          FAIR      85  48  27 N5        30.20F
DELTA          FAIR      86  49  27 CALM      30.19F
NUCLA          FAIR      84  45  24 NE3       30.28S
$$

COZ017>023-064>068-231900-
...SOUTHWEST COLORADO...

CITY           SKY/WX    TMP DP  RH WIND       PRES   REMARKS
DURANGO        FAIR      86  44  23 W9        30.26F
CORTEZ         FAIR      87  48  25 E6        30.23F
PAGOSA SPRINGS FAIR      83  33  17 S3        30.35F
TELLURIDE      FAIR      75  40  27 W9        30.51S
WOLF CREEK PAS PTSUNNY   61  36  39 N7        30.74S
$$

COZ009-010-012-014-032>034-037-058>063-231900-
...CENTRAL COLORADO...

CITY           SKY/WX    TMP DP  RH WIND       PRES   REMARKS
ASPEN          FAIR      80  44  27 NE7       30.36F
BUENA VISTA    FAIR      84  30  14 SW5G25    30.35S
COPPER MTN     FAIR      64  34  32 W12G18    30.72S
BERTHOUD PASS  FAIR      54  39  58 MISG      30.75S
COTTONWOOD PAS CLOUDY    73  32  21 CALM      30.53S
GUNNISON       FAIR      73  48  40 SW5       30.41F
KREMMLING      FAIR      77  41  27 E3        30.35F
LEADVILLE      FAIR      70  29  21 W15G21    30.52S
MONARCH PASS   FAIR      61  43  51 MISG      30.81S
SALIDA         FAIR      83  38  19 CALM      30.39F
SUNLIGHT       FAIR      68  45  42 CALM      30.65S
WILKERSON PASS CLOUDY    63  36  36 S5        30.67S
$$

COZ069>075-231900-
...SAN LUIS VALLEY/SANGRE DE CRISTO MOUNTAINS...

CITY           SKY/WX    TMP DP  RH WIND       PRES   REMARKS
ALAMOSA        FAIR      79  46  31 S3        30.35F
LA VETA PASS   FAIR      72  39  30 S5        30.56S
SAGUACHE       FAIR      82  41  23 NW12G17   30.36F
$$

COZ035-036-038>040-231900-
...NORTHERN COLORADO FRONT RANGE...

CITY           SKY/WX    TMP DP  RH WIND       PRES   REMARKS
DENVER INTL AP FAIR      92  40  16 VRB3      30.11F
DMNS CITY PARK   N/A     92  39  15 E8        30.10F
AURORA         MOSUNNY   92  42  17 NE5       30.14S
FRONT RANGE AP NOT AVBL
ERIE MUNI ARPT FAIR      92  35  13 S8        30.08S
BOULDER MUN AP FAIR      90  46  22 SE6       30.08F
CENTENNIAL     FAIR      90  36  14 VRB6      30.16S
BROOMFIELD     MOSUNNY   93  39  15 S7        30.13S
LONGMONT       FAIR      95  43  16 SE5       30.08F
$$

COZ041-046-047-076>085-087-088-231900-
...PIKES PEAK/PALMER DIVIDE AND SOUTHERN FOOTHILLS...

CITY           SKY/WX    TMP DP  RH WIND       PRES   REMARKS
COLO. SPRINGS  FAIR      88  41  19 VRB5      30.20S
A. F. ACADEMY  SUNNY     88  37  16 VRB2      30.21F
SCHRIEVER AFB  NOT AVBL
ELLICOTT       FAIR     N/A N/A N/A E7        30.18R
FALCON         NOT AVBL
FORT CARSON    FAIR      91  42  18 NE12      30.16S
LIMON          FAIR      93  41  16 NE14G20   30.12S
MONUMENT HILL  FAIR      81  43  26 NW3       30.29S
TRINIDAD       NOT AVBL
$$

COZ042>045-048>051-090-091-231900-
...NORTHEAST COLORADO...

CITY           SKY/WX    TMP DP  RH WIND       PRES   REMARKS
GREELEY ARPT   FAIR      95  48  20 SE7       30.06S
AKRON          FAIR      91  49  23 N13G18    30.06S
BURLINGTON     FAIR      93  58  30 N10       30.01S
WRAY           FAIR      93  61  33 W3        29.98S
STERLING       FAIR      93  59  31 W5        29.99F
HOLYOKE        FAIR     N/A N/A N/A W9        29.98F
FORT MORGAN    FAIR      93  50  22 SW6       30.05F
$$

COZ086-089-092>099-231900-
...SOUTHEAST COLORADO...

CITY           SKY/WX    TMP DP  RH WIND       PRES   REMARKS
PUEBLO         FAIR      97  45  16 VRB3      30.05F
LA JUNTA       FAIR      97  51  21 CALM      30.01F
LAMAR          FAIR      96  59  29 W5        29.94F
SPRINGFIELD      N/A     99  48  17 VRB7      30.01S
$$



USA.gov is the U.S. government's official web portal to all federal, state and local government web resources and services.